Regional Weather Roundup
Issued by NWS

Home | Current Version | Previous Version | Graphics & Text | Print | Product List | Glossary On
Versions: 1 2 3 4 5 6 7 8 9 10 11 12 13 14 15 16 17 18 19 20 21 22 23 24 25 26 27 28 29 30 31 32 33 34 35 36 37 38 39 40 41 42 43 44 45 46 47 48 49 50
000
ASUS43 KMPX 271501
RWRMN
WEATHER ROUNDUP FOR MINNESOTA
NATIONAL WEATHER SERVICE TWIN CITIES/CHANHASSEN MN
1000 AM CDT TUE SEP 27 2016


NOTE: "FAIR" INDICATES FEW OR NO CLOUDS BELOW 12,000 FEET WITH NO
SIGNIFICANT WEATHER AND/OR OBSTRUCTIONS TO VISIBILITY. N/A MEANS
CURRENT SKY AND/OR WEATHER CONDITIONS ARE NOT AVAILABLE.

MNZ060>063-068>070-271600-
   Twin Cities Metro

CITY           SKY/WX    TMP DP  RH WIND       PRES   REMARKS
TWIN CITIES    MOSUNNY   55  42  61 W18G25    29.83S
ST PAUL        SUNNY     56  42  59 W14G25    29.83S
CRYSTAL        SUNNY     56  40  55 NW16G24   29.82S
BLAINE         MOSUNNY   55  43  62 W20       29.81S
LAKEVILLE      SUNNY     54  43  66 W15G21    29.84S
EDEN PRAIRIE   SUNNY     55  42  61 W14G22    29.84S
LAKEVILLE      SUNNY     54  43  66 W15G21    29.84S
SOUTH ST PAUL  SUNNY     55  41  59 W17G23    29.82S
LAKE ELMO      FAIR      54  43  66 W16G24    29.82S
$$
MNZ001>005-007-008-013>017-022>024-027-028-271600-
   Northwest Minnesota

CITY           SKY/WX    TMP DP  RH WIND       PRES   REMARKS
BEMIDJI        CLOUDY    46  42  84 NW17G24   29.80F
HALLOCK        CLOUDY    50  45  81 NW18G25   29.88F
ROSEAU         CLOUDY    48  43  81 NW13      29.83R
WARROAD        CLOUDY    48  43  81 NW14G22   29.82R
THIEF RVR FALL CLOUDY    48  42  80 NW14G22   29.87F
CROOKSTON      PTSUNNY   48  43  81 NW17G23   29.90S
FOSSTON        CLOUDY    46  41  81 NW12      29.86F
DETROIT LAKES  SUNNY     48  43  81 N17G26    29.89R
MOORHEAD       SUNNY     54  39  58 NW16      29.91F
PARK RAPIDS    CLOUDY    49  40  71 NW16      29.83S
MAHNOMEN       CLOUDY    46  42  84 NW14G22   29.88S
$$
MNZ006-009>011-018-025>026-271600-
   North Central Minnesota

CITY           SKY/WX    TMP DP  RH WIND       PRES   REMARKS
BAUDETTE       LGT RAIN  48  44  86 NW15G25   29.78R
FLAG ISLAND    CLOUDY    48  43  81 NW22      29.79R
INTL FALLS     LGT RAIN  47  44  90 NW13G22   29.73R
WASKISH        LGT RAIN  48  45  87 NW14G20   29.78S
BIG FORK       RAIN      48  45  87 NW7       29.75R
GRAND RAPIDS   LGT RAIN  48  44  86 NW20G25   29.76S
ORR            MIX PCPN  46  43  87 NW12G17   29.68R
COOK           RAIN      46  45  93 NW8       29.70R
WALKER         CLOUDY    47  41  80 NW12G22   29.80S
$$
MNZ012-019>021-037-271600-
   Northeast Minnesota

CITY           SKY/WX    TMP DP  RH WIND       PRES   REMARKS
DULUTH         DRIZZLE   50  44  80 NW16G26   29.68S
ELY            CLOUDY    46  45  93 NW13G25   29.65R FOG
HIBBING        LGT RAIN  47  44  90 NW16G24   29.71R
EVELETH        DRIZZLE   46  44  90 NW15G21   29.70R
DULUTH HARBOR  CLOUDY    54  46  76 NW17      29.70R
TWO HARBORS    DRIZZLE   52  46  82 NW6       29.65R
SILVER BAY     CLOUDY    52  46  82 NW6       29.62R
GRAND MARAIS     N/A     51  43  74 VRB3      29.56R
G MARAIS ARPRT CLOUDY    45  39  81 NW13G20   29.55R
$$
MNZ029>031-032-039>041-046>048-054>057-064-271600-
   West Central Minnesota

CITY           SKY/WX    TMP DP  RH WIND       PRES   REMARKS
FERGUS FALLS   SUNNY     48  41  76 NW12      29.93F
MORRIS         SUNNY     54  39  58 NW16G22   29.91R
ALEXANDRIA     SUNNY     51  41  68 NW14G22   29.89S
ELBOW LAKE     FAIR      47  40  76 NW12G18   29.92S
WADENA         MOSUNNY   50  41  71 NW14G25   29.85R
GLENWOOD       SUNNY     52  41  66 W14       29.89S
BENSON         SUNNY     54  39  58 NW14G20   29.91S
ORTONVILLE     SUNNY     54  37  54 NW10      29.94S
MADISON        SUNNY     57  41  54 NW13      29.94S
WILLMAR        FAIR      52  43  71 NW12      29.91S
$$
MNZ033>034-036-042>043-049>051-058-059-271600-
   Central Minnesota

CITY           SKY/WX    TMP DP  RH WIND       PRES   REMARKS
ST CLOUD       SUNNY     52  43  71 NW21      29.83S
SAUK CENTRE    FAIR      51  41  69 NW15G23   29.86F
PAYNESVILLE    SUNNY     53  41  65 W15G23    29.88F
AITKIN         CLOUDY    52  41  66 W7        29.76R
PINE RIVER     CLOUDY    48  43  81 NW10      29.83R
BRAINERD       CLOUDY    50  42  74 W16G23    29.80S
STAPLES        MOSUNNY   50  41  71 NW24      29.83S
LONG PRAIRIE   FAIR      50  41  71 W15G21    29.86S
LITTLE FALLS   MOSUNNY   50  41  71 W17       29.83S
LITCHFIELD     SUNNY     54  45  71 W12G20    29.88F
BUFFALO        SUNNY     54  41  63 W13G21    29.86S
MAPLE LAKE     SUNNY     54  44  69 NW9G21    29.86S
HUTCHINSON     SUNNY     54  43  67 W12G21    29.89F
$$
MNZ037-044-045-052-053-271600-
   East Central Minnesota

CITY           SKY/WX    TMP DP  RH WIND       PRES   REMARKS
PRINCETON      MOSUNNY   54  45  71 W14G20    29.81S
MORA           PTSUNNY   50  43  76 W12G17    29.79F
CAMBRIDGE      PTSUNNY   54  43  66 W13G22    29.78S
MOOSE LAKE     CLOUDY    50  43  76 W10G17    29.72S
HINCKLEY       CLOUDY    52  43  71 NW9G16    29.76S
CLOQUET        CLOUDY    50  43  76 W13G22    29.70S
MCGREGOR       CLOUDY    50  45  81 NW14      29.75S
$$
MNZ071>073-080-081-089-090-097-098-271600-
   Southwest Minnesota

CITY           SKY/WX    TMP DP  RH WIND       PRES   REMARKS
MONTEVIDEO     SUNNY     57  41  54 NW10      29.94S
GRANITE FALLS  SUNNY     55  41  58 W12       29.94F
CANBY          SUNNY     56  40  53 NW10      29.97S
MARSHALL       SUNNY     56  38  50 NW14      29.95S
REDWOOD FALLS  SUNNY     54  40  59 W9        29.93R
OLIVIA         SUNNY     54  43  66 W12G18    29.90F
PIPESTONE      SUNNY     54  41  62 NW10      29.97S
WINDOM         SUNNY     55  37  50 NW12      29.94F
WORTHINGTON    SUNNY     58  36  43 W15       29.96S
JACKSON        SUNNY     55  34  44 NW9G17    29.95S
TRACY          SUNNY     57  38  49 NW13      29.95F
$$
MNZ065>067-074>077-082>085-091>093-271600-
   South Central Minnesota

CITY           SKY/WX    TMP DP  RH WIND       PRES   REMARKS
MANKATO        SUNNY     54  42  64 NW14      29.90S
NEW ULM        SUNNY     54  39  58 W10       29.92R
ST JAMES       SUNNY     55  37  50 W10       29.94S
FAIRMONT       SUNNY     55  38  52 NW13G20   29.94S
GLENCOE        SUNNY     54  45  69 W17G24    29.88S
FARIBAULT      SUNNY     55  43  62 W14G20    29.87S
OWATONNA       SUNNY     54  39  58 W17G25    29.87S
WASECA         SUNNY     54  41  62 W17       29.90F
ALBERT LEA     SUNNY     54  41  62 W6        29.90S
$$
MNZ078>079-086>088-094>096-271600-
   Southeast Minnesota

CITY           SKY/WX    TMP DP  RH WIND       PRES   REMARKS
ROCHESTER      SUNNY     55  41  59 W16G23    29.84F
RED WING       SUNNY     55  41  58 NW14G22   29.79F
STANTON        SUNNY     55  42  61 W18G28    29.83S
DODGE CENTER   SUNNY     54  39  58 W15G25    29.85F
WINONA         SUNNY     55  43  62 W10G21    29.81S
AUSTIN         SUNNY     54  39  58 W15G24    29.87F
PRESTON        SUNNY     54  40  59 W21G30    29.85F
$$
ABBREVIATIONS USED IN REMARKS
   TC - TEMPERATURES IN CELSIUS
  WCI - WIND CHILL INDEX
   HX - HEAT INDEX
  VSB - VISIBILITY
$$



USA.gov is the U.S. government's official web portal to all federal, state and local government web resources and services.